EDT,Max TemperatureF,Mean TemperatureF,Min TemperatureF,Max Dew PointF,MeanDew PointF,Min DewpointF,Max Humidity, Mean Humidity, Min Humidity, Max Sea Level PressureIn, Mean Sea Level PressureIn, Min Sea Level PressureIn, Max VisibilityMiles, Mean VisibilityMiles, Min VisibilityMiles, Max Wind SpeedMPH, Mean Wind SpeedMPH, Max Gust SpeedMPH,PrecipitationIn, CloudCover, Events, WindDirDegrees
2013-3-1,28,27,26,26,25,23,96,90,85,29.64,29.61,29.56,,,,15,6,18,0.10,,,349
2013-3-2,30,28,25,31,26,22,100,92,85,29.63,29.61,29.59,,,,13,9,20,0.17,,,329
2013-3-3,36,32,28,31,29,26,100,91,76,29.59,29.52,29.45,,,,14,8,20,0.02,,,323
2013-3-4,32,28,23,30,26,21,96,91,88,29.71,29.52,29.44,,,,17,11,26,0.45,,,327
2013-3-5,36,33,30,31,29,27,92,88,78,30.16,29.96,29.73,,,,14,9,22,0.02,,,11
2013-3-6,30,28,25,27,22,18,88,76,66,30.31,30.26,30.18,,,,17,9,23,0.01,,,85
2013-3-7,28,26,24,19,18,17,78,73,67,30.28,30.24,30.18,,,,13,10,21,0.00,,,60
2013-3-8,39,30,21,19,18,17,82,62,41,30.26,30.20,30.15,,,,13,9,21,0.00,,,355
2013-3-9,41,31,21,21,18,17,85,63,38,30.36,30.29,30.24,,,,16,7,24,0.00,,,345
2013-3-10,35,27,19,26,22,17,96,80,61,30.38,30.31,30.21,,,,8,2,,0.00,,,151
2013-3-11,39,34,28,33,29,25,100,87,67,30.22,30.15,30.08,,,,10,6,17,0.00,,,155
2013-3-12,42,38,34,42,38,33,100,99,96,30.08,29.98,29.72,,,,10,7,17,0.51,,,148
2013-3-13,43,35,28,42,30,20,100,84,61,29.73,29.68,29.64,,,,14,8,23,0.18,,,327
2013-3-14,33,23,14,21,15,6,78,66,52,29.70,29.63,29.57,,,,15,6,26,0.00,,,315
2013-3-15,27,17,8,11,4,-2,76,57,30,29.73,29.64,29.55,,,,14,9,25,0.00,,,321
2013-3-16,25,20,12,13,7,2,88,64,40,29.84,29.73,29.60,,,,12,8,21,0.04,,,321
2013-3-17,19,13,7,3,-3,-9,80,54,33,30.22,29.97,29.84,,,,18,5,34,0.00,,,312
2013-3-18,27,16,5,1,-5,-9,55,41,26,30.35,30.29,30.24,,,,14,9,20,0.00,,,329
2013-3-19,19,18,16,15,7,-4,92,67,36,30.25,30.03,29.74,,,,15,8,23,0.64,,,105
2013-3-20,25,18,12,17,14,10,92,84,72,29.71,29.58,29.51,,,,13,6,21,0.18,,,340
2013-3-21,33,24,15,17,14,10,92,66,38,29.68,29.63,29.59,,,,9,2,,0.00,,,19
2013-3-22,30,22,15,20,14,10,81,70,51,29.60,29.57,29.52,,,,14,5,20,0.00,,,324
2013-3-23,30,24,19,22,18,14,81,69,59,29.55,29.45,29.38,,,,16,7,30,0.00,,,304
2013-3-24,37,32,27,27,23,22,88,73,57,29.76,29.68,29.57,,,,16,9,28,0.01,,,324
2013-3-25,37,32,26,26,23,21,96,74,54,29.77,29.70,29.62,,,,13,5,,0.00,,,19
2013-3-26,39,30,21,29,24,19,92,76,51,29.68,29.62,29.58,,,,14,8,24,0.00,,,329
2013-3-27,36,33,30,33,31,26,96,92,85,29.87,29.74,29.65,,,,14,8,23,0.19,,,332
2013-3-28,46,38,32,32,31,23,100,79,43,29.94,29.90,29.86,,,,15,5,23,0.00,,,326
2013-3-29,45,40,35,33,29,26,89,71,49,29.97,29.93,29.91,,,,13,7,21,0.00,,,322
2013-3-30,44,36,30,28,17,8,88,52,24,30.06,30.00,29.96,,,,14,7,21,0.00,,,331
2013-3-31,46,35,24,24,14,9,67,39,22,30.08,29.99,29.82,,,,12,5,21,0.00,,,157